I Watch It For The Plot // 9.72 TiB free of 112 TiB

c File Name Size Date
parent folder--
-1434176.json55532025-05-08 02:07:46
-1434176_2023773_assassincarl_giftadultgwen.jpg8109832025-05-08 02:07:46
-1659921.json56982025-07-23 22:47:14
-1659921_2370749_assassincarl_giftdrgwenfa.jpg10147642025-07-23 22:47:14
-1795814.json52552025-07-21 14:47:11
-1795814_2575297_assassincarl_skyepatrolfa.jpg9911432025-07-21 14:47:11
-2066347.json54282025-07-17 10:02:39
-2066347_2988210_assassincarl_hopkinsmacrofa.jpg35739702025-07-17 10:02:39
-2066348.json53662025-07-17 10:02:36
-2066348_2988211_assassincarl_whispercommfa.jpg9162662025-07-17 10:02:36
-2066349.json55132025-07-17 10:02:35
-2066349_2988212_assassincarl_pokebeaangelicafa.jpg9273632025-07-17 10:02:35
-2077761.json46712025-07-17 07:15:50
-2077761_3005682_assassincarl_bosspigcommfa.jpg9321132025-07-17 07:15:50
-2077762.json47312025-07-17 07:15:50
-2077762_3005683_assassincarl_clean_up_isabellefa.jpg9358292025-07-17 07:15:50
-2078622.json53702025-07-17 07:00:56
-2078622_3007011_assassincarl_goatmomblocksyourpathfa.jpg4191152025-07-17 07:00:56
-2080811.json50702025-07-17 06:21:37
-2080811_3010377_assassincarl_giftmeltingfoxyfa.jpg3983802025-07-17 06:21:37
-2080813.json52992025-07-17 12:44:54
-2080813_3010379_assassincarl_waifusawyerfa.jpg9097732025-07-17 12:44:54
-2086867.json46812025-07-17 04:42:48
-2086867_3019570_assassincarl_hollyhockrubyfa.jpg7089212025-07-17 04:42:48
-2096144.json54462025-07-17 02:04:27
-2096144_3033340_assassincarl_mayanglebuttfa.jpg12406332025-07-17 02:04:27
-2109338.json50592025-07-16 22:19:33
-2109338_3053473_assassincarl_pearlkrabsfa.jpg8333982025-07-16 22:19:33
-2113288.json53132025-07-16 21:06:24
-2113288_3059471_assassincarl_nicolewattersonfa.jpg8125222025-07-16 21:06:24
-2113289.json53832025-07-16 21:06:24
-2113289_3059474_assassincarl_piggywineryfa.jpg8444322025-07-16 21:06:24
-2116596.json62172025-07-16 20:04:27
-2116596_3064634_assassincarl_roliephatgirlxoverfa.jpg8610812025-07-16 20:04:27
-2116944.json53202025-07-16 19:57:20
-2116944_3065108_assassincarl_axelacekittybikiniwitchfa.jpg6311862025-07-16 19:57:20
-2122854.json54382025-07-16 18:09:08
-2122854_3074275_assassincarl_commjak55fa.jpg12901872025-07-16 18:09:08
-2122855.json54182025-07-16 18:09:07
-2122855_3074276_assassincarl_gifttysonfa.jpg5920662025-07-16 18:09:07
-2129157.json54002025-07-16 16:21:17
-2129157_3084699_assassincarl_hyperassdeertankfa.jpg9872852025-07-16 16:21:17
-2132056.json56372025-07-16 15:32:57
-2132056_3089168_assassincarl_gloria_melmanfa.jpg10346772025-07-16 15:32:57
-2136990.json55772025-07-16 13:53:02
-2136990_3096438_assassincarl_6_charcter_challenge_fa.jpg14224992025-07-16 13:53:02
-2137186.json52842025-07-16 13:50:20
-2137186_3096811_assassincarl_babselfiefa.jpg9636512025-07-16 13:50:20
-2139486.json54262025-07-16 13:16:36
-2139486_3100425_assassincarl_deviant1over2commfa.jpg13499182025-07-16 13:16:36
-2140930.json49412025-07-16 12:55:24
-2140930_3102611_assassincarl_blackspringfa.jpg6975242025-07-16 12:55:24
-2143730.json56842025-07-16 12:14:34
-2143730_3106980_assassincarl_queenmayqiyanafa.jpg10770022025-07-16 12:14:34
-2154117.json56702025-07-16 09:16:07
-2154117_3123171_assassincarl_cmdbuttsmacker_commfa.jpg2935492025-07-16 09:16:07
-2161630.json60842025-07-16 07:07:31
-2161630_3134916_assassincarl_commcommander_buttsmackergloria_annonfa.jpg6477902025-07-16 07:07:31
-2161631.json65212025-07-16 07:07:30
-2161631_3134917_assassincarl_jak55commfa.jpg9144972025-07-16 07:07:30
-2176566.json55012025-07-16 03:05:28
-2176566_3158820_assassincarl_thiccshyfa.jpg9646132025-07-16 03:05:28
-2191463.json56942025-07-15 22:54:53
-2191463_3181652_assassincarl_cvelcroprice_fat_midnafa.jpg4822352025-07-15 22:54:53
-2191464.json57392025-07-15 22:54:52
-2191464_3181653_assassincarl_commbrizzarcadefa.jpg8284772025-07-15 22:54:52
-2191465.json60042025-07-15 22:54:50
-2191465_3181654_assassincarl_rexandmay_pharah_and_mercyfa.jpg11697442025-07-15 22:54:50
-2201107.json54302025-07-15 19:49:48
-2201107_3197351_assassincarl_bigtiddygothgfatbeachfa.jpg9104552025-07-15 19:49:48
-2205360.json52912025-07-15 18:39:44
-2205360_3203768_assassincarl_afraidofheightsfa.jpg6807732025-07-15 18:39:44
-2211191.json60512025-07-15 17:01:14
-2211191_3212494_assassincarl_rouge_and_may_vs_the_baddiesfa.jpg11641552025-07-15 17:01:14
-2214095.json59302025-07-15 16:12:23
-2214095_3216911_assassincarl_bellahypertaurfa.jpg10206292025-07-15 16:12:23
-2221754.json61032025-07-15 14:01:30
-2221754_3228764_assassincarl_xj9buttsmackercommfa.jpg5770192025-07-15 14:01:30
-2221756.json53792025-07-15 14:01:26
-2221756_3228766_assassincarl_fatbearweekfa.jpg7430792025-07-15 14:01:26
-2228810.json130362025-07-15 12:08:18
-2228810_3239930_assassincarl_tsunoda_in_the_hallwayfa.jpg9945622025-07-15 12:08:18
-2230697.json59682025-07-15 11:31:50
-2230697_3242721_assassincarl_atwadremakefa.jpg5393132025-07-15 11:31:50
-2236484.json52022025-07-15 09:41:30
-2236484_3251445_assassincarl_bernicefa.jpg8846462025-07-15 09:41:30
-2243097.json58672025-07-15 07:59:41
-2243097_3261388_assassincarl_commbrizzbouncecastlehopfa.jpg11752892025-07-15 07:59:41
-2244450.json54322025-07-15 07:36:47
-2244450_3263610_assassincarl_sailormarstessfa.jpg10867322025-07-15 07:36:47
-2246875.json59982025-07-15 06:56:51
-2246875_3267409_assassincarl_deviant1over2comm2fa.jpg5367562025-07-15 06:56:51
-2253923.json57422025-07-15 05:04:15
-2253923_3277884_assassincarl_robogloriafa.jpg3518282025-07-15 05:04:15
-2254265.json52942025-07-15 04:59:06
-2254265_3278362_assassincarl_2020_commission_pricesfa.jpg5182482025-07-15 04:59:06
-2261561.json55842025-07-15 02:59:43
-2261561_3289459_assassincarl_thotpolicecarmilta.jpg9096142025-07-15 02:59:43
-2262618.json50272025-07-15 02:42:23
-2262618_3291251_assassincarl_blm.jpg33311112025-07-15 02:42:23
-2263207.json53792025-07-15 02:34:00
-2263207_3292145_assassincarl_hopkinscommfa.jpg8026182025-07-15 02:34:00
-2266392.json57102025-07-15 01:44:44
-2266392_3297150_assassincarl_flareonfordomecommfa.jpg4313302025-07-15 01:44:44
-2266393.json59162025-07-15 01:44:44
-2266393_3297151_assassincarl_flareonfordomecommgasaltfa.jpg6668022025-07-15 01:44:44
-2268943.json60812025-07-15 01:09:23
-2268943_3302450_assassincarl_rarabotbuttjobfa.jpg5787162025-07-15 01:09:23
-2269141.json56482025-07-15 01:06:37
-2269141_3301529_assassincarl_jessoktoberfestfa.jpg8874292025-07-15 01:06:37
-2270806.json52582025-07-15 00:41:24
-2270806_3304265_assassincarl_froppybubblebutt.jpg4770182025-07-15 00:41:24
-2272276.json61492025-07-15 00:19:48
-2272276_3306713_assassincarl_brandyoutgrowsmallfa.jpg6359702025-07-15 00:19:48
-2276605.json63032025-07-14 23:19:31
-2276605_3313344_assassincarl_sf5ultimatekoalt.jpg10695812025-07-14 23:19:31
-2276613.json64042025-07-14 23:19:24
-2276613_3313352_assassincarl_sf5ultimatefakazevisable.jpg10034702025-07-14 23:19:24
-2278615.json57262025-07-14 22:46:38
-2278615_3317565_assassincarl_roseqtrampstampfa.jpg4855372025-07-14 22:46:38
-2278945.json58092025-07-14 22:41:44
-2278945_3318042_assassincarl_gwensuccgiftfa.jpg7110282025-07-14 22:41:44
-2285636.json57622025-07-14 20:55:45
-2285636_3329054_assassincarl_rarcadencebotsfa.jpg11052852025-07-14 20:55:45
-2288257.json55632025-07-14 20:15:26
-2288257_3332967_assassincarl_dukecidercellerfa.jpg7976132025-07-14 20:15:26
-2300703.json53842025-07-14 16:32:47
-2300703_3352944_assassincarl_bigbellybrizzfa.jpg5769972025-07-14 16:32:47
-2300705.json56842025-07-14 16:32:46
-2300705_3352946_assassincarl_gloriabighabfa.jpg5995832025-07-14 16:32:46
-2317420.json54352025-07-14 10:38:46
-2317420_3381535_assassincarl_stuckbeth.jpg3854762025-07-14 10:38:46
-2321889.json60542025-07-14 09:12:52
-2321889_3388711_assassincarl_robogloriafa1.jpg6122162025-07-14 09:12:52
-2324163.json58712025-07-14 08:31:45
-2324163_3392472_assassincarl_dukeapplepickinfa.jpg8488562025-07-14 08:31:45
-2349463.json59362025-07-14 19:25:15
-2349463_3432089_assassincarl_rosecassdinerfa.jpg8040292025-07-14 19:25:15
-2349464.json56282025-07-14 19:25:14
-2349464_3432090_assassincarl_cufloydcomm1280.jpg22756602025-07-14 19:25:14
-2349465.json54762025-07-14 02:18:30
-2349465_3432091_assassincarl_gloriasketch.jpg3408332025-07-14 02:18:30
-2349466.json56052025-07-14 02:18:29
-2349466_3432093_assassincarl_cowconniefa.jpg11719582025-07-14 02:18:29
-2363077.json55092025-07-13 22:56:33
-2363077_3454365_assassincarl_fishtankfa.jpg9360842025-07-13 22:56:33
-2368116.json56882025-07-13 21:42:40
-2368116_3462779_assassincarl_aggretsuko.jpg30293272025-07-13 21:42:40
-2377860.json56602025-07-13 19:17:47
-2377860_3478810_assassincarl_honeyslimemay.jpg47251742025-07-13 19:17:47
-2388560.json54762025-07-13 16:19:08
-2388560_3496324_assassincarl_berenstainmomfa.jpg25273272025-07-13 16:19:08
-2396069.json55092025-07-13 14:16:17
-2396069_3508145_assassincarl_atlordantera.jpg34120482025-07-13 14:16:17
-2404327.json57442025-07-13 12:01:24
-2404327_3521458_assassincarl_acerequestfa.jpg4448722025-07-13 12:01:24
-2405742.json59702025-07-13 11:36:38
-2405742_3523631_assassincarl_newjenna.jpg13874672025-07-13 11:36:38
-2411289.json53122025-07-13 17:39:30
-2411289_3532181_assassincarl_first_pump.jpg10607422025-07-13 17:39:30
-2414194.json58372025-07-13 09:33:06
-2414194_3536711_assassincarl_brandpart4.jpg8430142025-07-13 09:33:06
-2414423.json57682025-07-13 09:30:03
-2414423_3537071_assassincarl_april_easter.jpg3700262025-07-13 09:30:03
-2420346.json55332025-07-13 08:09:19
-2420346_3546608_assassincarl_shriektrampstamp.jpg3162122025-07-13 08:09:19
-2421707.json58472025-07-13 07:50:46
-2421707_3548733_assassincarl_robogloriacommfa.jpg4301782025-07-13 07:50:46
-2421934.json59922025-07-13 07:47:45
-2421934_3549123_assassincarl_cufloydlapdancefa.jpg10554432025-07-13 07:47:45
-2429847.json70782025-07-13 16:29:38
-2429847_3561477_assassincarl_thechase.jpg37062222025-07-13 16:29:38
-2429848.json72672025-07-13 16:29:37
-2429848_3561478_assassincarl_theescape.jpg35646882025-07-13 16:29:37
-2436538.json52532025-07-13 04:35:11
-2436538_3572065_assassincarl_10_year_compairson.jpg23358392025-07-13 04:35:11
-2436541.json62382025-07-13 04:35:08
-2436541_3572068_assassincarl_10_year_lookback.jpg16731532025-07-13 04:35:08
-2445916.json55992025-07-13 02:26:29
-2445916_3587178_assassincarl_gloriafnaf_fa.jpg4279742025-07-13 02:26:29
-2445917.json58692025-07-13 02:26:28
-2445917_3587179_assassincarl_mountainsinflorida_fa.jpg9608502025-07-13 02:26:28
-2447650.json58002025-07-13 02:04:57
-2447650_3589890_assassincarl_summerpooltsuyufa.jpg12876722025-07-13 02:04:57
-2448933.json56082025-07-13 15:21:13
-2448933_3591933_assassincarl_elephantstrainfa.jpg10390502025-07-13 15:21:13
-2451307.json54802025-07-13 01:17:26
-2451307_3595666_assassincarl_i_have_become_one_with_the_bug_fa.jpg3950302025-07-13 01:17:26
-2453979.json59792025-07-13 15:05:45
-2453979_3600178_assassincarl_msfrizzlefa.jpg9428122025-07-13 15:05:45
-2464771.json71662025-07-12 22:04:00
-2464771_3617579_assassincarl_comm_prices_2021.jpg31217722025-07-12 22:04:00
-2470600.json54642025-07-12 20:33:26
-2470600_3626768_assassincarl_maybodytypefa.jpg2808052025-07-12 20:33:26
-2478875.json52862025-07-13 14:06:20
-2478875_3640004_assassincarl_stpattyfa.jpg8287292025-07-13 14:06:20
-2486193.json61842025-07-12 16:44:25
-2486193_3651902_assassincarl_commbasholiviawallsquashfa.jpg12628642025-07-12 16:44:25
-2486194.json62342025-07-12 16:44:24
-2486194_3651903_assassincarl_commbasholiviawallsquashgasfa.jpg12207002025-07-12 16:44:24
-2486653.json52032025-07-12 16:38:13
-2486653_3652591_assassincarl_ax_rvvlc.png4850512025-07-12 16:38:13
-2486654.json52132025-07-12 16:38:12
-2486654_3652592_assassincarl_nj9yno_j.png5835652025-07-12 16:38:12
-2488700.json61912025-07-12 16:09:18
-2488700_3655870_assassincarl_commgaussxfrizzlekissfa.jpg8045362025-07-12 16:09:18
-2514534.json54192025-07-12 08:58:25
-2514534_3698790_assassincarl_wammawink.jpg4397522025-07-12 08:58:25
-2542945.json52102025-07-12 00:49:00
-2542945_3745199_assassincarl_pickles.jpg6698242025-07-12 00:49:00
-2546604.json55532025-07-11 23:50:20
-2546604_3751019_assassincarl_jess_coffee_shoppe_meme.jpg8483972025-07-11 23:50:20
-2558961.json60102025-07-11 20:43:14
-2558961_3770875_assassincarl_isabellescooter_heavier_than_sora_joke.jpg11387032025-07-11 20:43:14
-2565293.json64972025-07-11 19:13:53
-2565293_3780994_assassincarl_noributtarttradefa.jpg5716792025-07-11 19:13:53
-2567923.json55812025-07-11 18:37:50
-2567923_3786032_assassincarl_maymaka.jpg7610152025-07-11 18:37:50
-2572427.json58392025-07-11 17:36:05
-2572427_3793366_assassincarl_gwentatsumaki.jpg11591242025-07-11 17:36:05
-2590869.json51702025-07-11 13:23:47
-2590869_3823193_assassincarl_waterbaby.jpg7774632025-07-11 13:23:47
-2594489.json52802025-07-11 12:32:53
-2594489_3828944_assassincarl_umecoalpawcommfa.jpg6822342025-07-11 12:32:53
-2613413.json54092025-07-11 08:01:46
-2613413_3859193_assassincarl_welcometothegardenclub.jpg10704192025-07-11 08:01:46
-2621022.json52442025-07-11 06:15:31
-2621022_3871725_assassincarl_junostretch.jpg6866002025-07-11 06:15:31
-2623383.json55562025-07-12 01:43:28
-2623383_3875428_assassincarl_anonrobohippocomfa.jpg6314242025-07-12 01:43:28
-2624507.json52072025-07-12 01:40:00
-2624507_3877266_assassincarl_pikachuusesthunderfa.jpg13355692025-07-12 01:40:00
-2639916.json55422025-07-11 02:07:53
-2639916_3901565_assassincarl_maymayfa.jpg9509782025-07-11 02:07:53
-2648903.json55562025-07-12 00:20:37
-2648903_3915660_assassincarl_brandy_6_fa.jpg6031672025-07-12 00:20:37
-2656070.json53632025-07-10 22:07:42
-2656070_3927051_assassincarl_thiccshyguyfa.jpg5251962025-07-10 22:07:42
-2669288.json57312025-07-10 18:47:12
-2669288_3948163_assassincarl_flamenadicommfa.jpg11133202025-07-10 18:47:12
-2672578.json51402025-07-10 17:51:52
-2672578_3953427_DialBforBear_yisunrainedon.jpg25827552025-07-10 17:51:52
-2679121.json49852025-07-10 16:00:22
-2679121_3963548_DialBforBear_sandy.jpg5119962025-07-10 16:00:22
-2684957.json54362025-07-10 14:32:27
-2684957_3972754_DialBforBear_goddessofchaosfa.jpg10205342025-07-10 14:32:27
-2692738.json55722025-07-10 12:25:22
-2692738_3986006_DialBforBear_mayconspiracyfa.jpg4496052025-07-10 12:25:22
-2737498.json54252025-07-10 00:51:04
-2737498_4057916_DialBforBear_dianefoxingtonthegovernormono.jpg8709162025-07-10 00:51:04
-2737499.json55022025-07-10 00:51:03
-2737499_4057918_DialBforBear_dianefoxingtonthegovernor.jpg9747222025-07-10 00:51:03
-2753178.json54722025-07-09 20:25:34
-2753178_4083125_DialBforBear_randmprincessofthechoods.jpg3612432025-07-09 20:25:34
-2836535.json59652025-07-09 00:25:34
-2836535_4214936_DialBforBear_aprilteachertfa.jpg8128072025-07-09 00:25:34
-2849308.json64282025-07-08 21:09:06
-2849308_4235601_DialBforBear_gwensquirrelgirl.jpg8910382025-07-08 21:09:06
-2921213.json54682025-07-08 00:15:41
-2921213_4352546_DialBforBear_cheerpressurefa.jpg17503712025-07-08 00:15:41
-3088335.json51342025-07-03 14:25:39
-3088335_4625990_DialBforBear_tiffcrustposting.jpg4060252025-07-03 14:25:39
-550947.json57312025-04-13 23:07:44
-550947_721943_assassincarl_1388599589.assassincarl_illshowyoulowassrating.jpg8615912025-04-13 23:07:44
-550948.json60462025-04-13 23:07:45
-550948_721944_assassincarl_1388986029.assassincarl_giftartwyanewill.jpg8592312025-04-13 23:07:45
-550950.json54242025-04-13 23:07:48
-550950_721946_assassincarl_1389247064.assassincarl_commhappyfeethax.jpg8242732025-04-13 23:07:48
-550951.json61032025-04-13 23:07:49
-550951_721947_assassincarl_1390194089.assassincarl_commhappyfeethax2.jpg7419852025-04-13 23:07:49
-562100.json49242025-04-14 03:16:08
-562100_736736_assassincarl_bubblebuttferra.jpg5240942025-04-14 03:16:08
-562105.json49202025-04-14 03:16:15
-562105_736741_assassincarl_elitetrainerrex.jpg7210482025-04-14 03:16:15
-572898.json49002025-04-14 07:11:41
-572898_752050_assassincarl_allicow.jpg7511412025-04-14 07:11:41
-584853.json52052025-04-23 12:18:29
-584853_767866_assassincarl_loljigglyashe.jpg10748892025-04-23 12:18:29
-590898.json49792025-04-23 14:35:26
-590898_776013_assassincarl_requestfatkangaroo.jpg7243552025-04-23 14:35:26
-686472.json48932025-04-25 03:54:55
-686472_910207_assassincarl_gifttoroko.jpg10653612025-04-25 03:54:55
-686473.json53322025-04-25 03:54:56
-686473_910208_assassincarl_giftmaxsgassysurprise.jpg7538362025-04-25 03:54:56
-912363.json55362025-04-28 16:40:35
-912363_1244753_assassincarl_700watchergiftpicmirina.jpg9321882025-04-28 16:40:35
-921110.json56392025-04-28 20:07:52
-921110_1258085_assassincarl_hypemay.jpg10356302025-04-28 20:07:52
-929908.json51642025-04-28 23:33:52
-929908_1271181_assassincarl_giftsatsumalordchelsea.jpg49782242025-04-28 23:33:52
-961888.json50592025-04-29 11:20:24
-961888_1317677_assassincarl_giftartnorithics.jpg9489112025-04-29 11:20:24
-980350.json53092025-04-30 18:42:49
-980350_1344875_assassincarl_christmascomm.jpg5098512025-04-30 18:42:49

control-panel